Regional Weather Roundup
Issued by NWS

Home | Current Version | Previous Version | Text Only | Print | Product List | Glossary Off
Versions: 1 2 3 4 5 6 7 8 9 10 11 12 13 14 15 16 17 18 19 20 21 22 23 24 25 26 27 28

000
ASUS45 KGTF 031510
RWRMT
MONTANA HOURLY WEATHER ROUNDUP
NATIONAL WEATHER SERVICE GREAT FALLS MT
900 AM MDT SUN MAY 03 2015

NOTE: "FAIR" INDICATES FEW OR NO CLOUDS BELOW 12000 FEET WITH NO
SIGNIFICANT WEATHER AND/OR OBSTRUCTIONS TO VISIBILITY.

MTZ001>007-043-031600-
WEST OF THE DIVIDE

CITY           SKY/WX    TMP DP  RH WIND       PRES   REMARKS
KALISPELL      SUNNY     47  24  40 N8        30.02S
MISSOULA       SUNNY     42  26  53 CALM      30.03S
BUTTE          SUNNY     40  20  44 N3        30.01S
DEER LODGE       N/A     45  27  49 CALM      30.05S
EUREKA           N/A     43  23  45 CALM      30.09R
LIBBY            N/A     41  25  52 CALM      30.07S
$$

MTZ008-052>055-031600-
SOUTHWEST MONTANA

CITY           SKY/WX    TMP DP  RH WIND       PRES   REMARKS
BOZEMAN        SUNNY     46  34  62 NW3       30.02S
DILLON         SUNNY     46  29  51 N9        29.99S
$$

MTZ009-010-012-014-046-048-049-054-031600-
EAST SLOPES AND CENTRAL MONTANA

CITY           SKY/WX    TMP DP  RH WIND       PRES   REMARKS
CUT BANK       SUNNY     45  28  51 SE10      30.02S
GREAT FALLS    MOSUNNY   45  29  53 CALM      30.03S
MALMSTROM AFB  MOSUNNY   45  30  56 NE3       30.04S
HELENA         SUNNY     47  28  47 NW5       30.02S
$$

MTZ011-013-016-021-045-047-050-051-031600-
NORTH CENTRAL MONTANA

CITY           SKY/WX    TMP DP  RH WIND       PRES   REMARKS
HAVRE          CLOUDY    47  27  45 E6        30.06S
LEWISTOWN      PTSUNNY   48  24  39 E10       30.04S
CHINOOK          N/A     48  25  40 CALM      30.07S
FORT BENTON      N/A     48  27  43 N3        30.05F
$$

MTZ017>020-022>042-056>058-061-062-031600-
EASTERN PLAINS

CITY           SKY/WX    TMP DP  RH WIND       PRES   REMARKS
BAKER          PTSUNNY   52  32  46 NE9       30.02R
BILLINGS       PTSUNNY   48  31  51 NE12      30.05S
GLASGOW        MOSUNNY   47  33  58 SW7       30.05R
JORDAN           N/A     52  27  38 CALM      30.05R
LIVINGSTON     SUNNY     49  33  54 E13       30.03R
MILES CITY     CLOUDY    52  34  50 E3        30.05R
SIDNEY         MOSUNNY   52  32  46 N7        30.04S
WOLF POINT     SUNNY     50  33  52 CALM      30.05R
BIG TIMBER       N/A     48  34  57 E7        30.05S
FORSYTH          N/A     52  34  50 NE3       30.06R
PLENTYWOOD       N/A     48  30  49 NW18      30.01S
POPLAR           N/A     52  27  37 N9        30.05S
$$

REGIONAL REPORTS...DAKOTAS

CITY           SKY/WX    TMP DP  RH WIND       PRES   REMARKS
WILLISTON      SUNNY     53  25  33 NW12      30.02R
MINOT          SUNNY     55  30  38 NW16      29.96R
DICKINSON      PTSUNNY   54  33  45 N12       29.99R
BEACH          CLOUDY    50  32  50 N5        30.04R
CROSBY         FAIR      50  32  50 NW18      30.00S
WATFORD CITY   FAIR      50  30  46 N9        30.00S
BISMARCK       CLOUDY    54  35  48 N17G24    29.98R
GRAND FORKS    CLOUDY    56  39  53 NW15G24   29.87R
FARGO          CLOUDY    60  41  49 N17G23    29.86R
BUFFALO SD       N/A     54  37  52 NE14      29.93R
RAPID CITY     SUNNY     58  37  45 N18       29.97R
$$

REGIONAL REPORTS...WYOMING/IDAHO/WASHINGTON

CITY           SKY/WX    TMP DP  RH WIND       PRES   REMARKS
GILLETTE       SUNNY     56  36  47 NE8       29.99R
SHERIDAN       SUNNY     51  37  58 N7        30.04R
BUFFALO WY     SUNNY     53  36  52 N9        30.04R
CODY           SUNNY     48  34  57 N13       30.01R
YELLOWSTONE LA   N/A     40  26  57 E3        30.07R
IDAHO FALLS    PTSUNNY   54  37  52 CALM      29.95S
SALMON         SUNNY     45  28  53 CALM      29.97S
BOISE          MOSUNNY   53  33  46 W5        29.89R
SPOKANE        MOSUNNY   49  24  37 NE9       30.00S
$$

REGIONAL REPORTS...ALBERTA

CITY           SKY/WX    TMP DP  RH WIND       PRES   REMARKS
EDMONTON       SUNNY     41  36  81 N5        30.04R
CALGARY        MOSUNNY   43  27  52 S6        30.06S
LETHBRIDGE     PTSUNNY   41  30  65 NE10      30.06R
MEDICINE HAT   MOSUNNY   43  30  61 NE3       30.08R
$$

REGIONAL REPORTS...SASKATCHEWAN

CITY           SKY/WX    TMP DP  RH WIND       PRES   REMARKS
SWIFT CURRENT  SUNNY     41  32  70 W12       30.04R
REGINA         MOSUNNY   45  37  76 NW17      29.99R
SASKATOON      MOSUNNY   45  37  76 W6        30.01R
$$



USA.gov is the U.S. government's official web portal to all federal, state and local government web resources and services.